Wind_Speed
15 13 10 8 6 3 1 4 7 9 11 13 14 16 18 19 20 21 22 23 24 25 27 29 31 33 36 38 39 41 42 44 45 46 47 47 48 49 50 51 52 52 52 52 53 53 54 55 56 57 58 58 59 60 61 62 63 64 65 65 66 66 67 68 68 66 65 62 59 58 59 60 61 61 61 60 61 62 62 62 63 63 64 64 65
15 13 11 8 6 4 2 1 4 7 9 11 12 14 15 17 18 20 22 23 24 25 26 27 28 29 31 33 35 36 39 40 42 44 46 48 50 51 52 52 53 53 54 54 55 56 56 57 57 59 60 59 59 60 60 61 62 63 64 65 65 65 67 68 69 68 67 66 63 60 60 60 61 62 62 62 62 62 62 62 63 64 63 64 65
12 11 10 8 6 5 4 3 3 5 7 10 11 13 14 15 16 18 19 21 22 24 26 27 28 29 30 31 32 34 35 36 38 39 41 44 46 49 51 52 54 55 56 57 58 59 60 61 61 62 63 62 61 61 62 63 63 64 64 64 65 66 67 68 69 69 69 69 68 65 63 62 62 62 63 62 62 62 62 63 64 64 64 65 66
12 10 9 7 7 7 6 7 7 7 8 9 11 12 14 15 16 18 19 20 21 22 23 25 26 28 29 31 32 33 34 35 36 37 38 39 41 43 45 47 48 50 52 54 56 58 59 61 62 63 64 64 63 63 64 64 65 65 65 65 64 65 65 65 65 66 66 67 67 66 65 65 64 64 64 63 62 63 64 65 65 65 66 67 65
17 13 10 9 8 8 8 9 11 12 12 13 13 14 15 16 17 18 19 20 21 22 23 24 25 26 27 29 30 31 33 34 35 36 37 37 38 39 40 41 42 43 44 46 47 49 51 53 55 58 60 61 62 63 64 65 65 65 65 65 64 63 63 63 63 63 64 64 65 65 66 66 64 63 63 63 64 65 66 67 68 68 67 65 62
24 20 16 13 10 9 10 11 12 13 15 16 16 16 17 18 19 20 21 22 22 23 24 25 26 26 27 28 28 29 30 31 32 33 34 35 36 37 38 39 40 41 42 42 43 44 45 46 48 50 51 53 55 57 59 61 61 62 62 63 63 64 64 64 64 64 64 63 63 63 63 62 62 62 64 66 67 68 69 69 69 67 65 62 59
29 26 23 20 16 13 11 12 13 14 15 16 17 17 18 18 19 20 21 22 23 23 24 25 26 27 28 28 29 30 30 30 31 32 32 33 34 35 36 37 38 39 40 41 42 43 44 45 46 47 48 48 49 50 51 53 54 56 57 58 59 60 61 61 62 62 62 61 61 61 61 62 63 64 66 68 69 68 68 67 65 63 61 59 57
31 28 26 24 22 19 16 14 13 13 14 15 17 17 18 19 19 20 21 22 23 23 24 25 26 26 27 28 29 29 30 31 31 32 33 34 34 35 36 37 38 39 40 41 42 43 44 46 47 48 49 49 50 50 50 51 52 53 54 55 56 57 58 59 59 60 61 61 62 62 63 64 64 65 65 65 65 64 63 62 61 60 59 58 57
33 30 28 26 25 23 21 19 17 15 13 13 13 14 16 17 19 20 20 21 22 23 24 25 26 26 27 27 28 29 29 30 31 32 32 33 34 35 36 37 38 39 39 40 42 43 44 45 47 48 49 50 50 51 52 53 53 54 54 55 56 56 57 57 58 58 59 60 60 61 61 61 62 62 62 62 62 62 62 62 61 60 59 59 58
35 32 29 27 25 24 23 21 20 18 16 15 13 12 12 13 15 16 18 19 20 21 22 24 25 26 27 27 28 29 30 31 31 32 33 34 34 35 37 38 39 40 40 41 42 43 44 45 46 47 48 49 50 51 51 52 53 54 54 55 56 56 57 57 58 58 59 59 59 60 60 60 61 62 62 62 63 63 63 63 63 62 62 60 59
33 33 31 28 25 24 22 22 20 19 18 17 16 15 15 14 14 13 14 14 16 17 19 21 22 24 25 26 27 28 29 30 32 33 34 35 35 36 38 39 41 42 43 44 45 46 47 48 48 49 50 51 51 52 53 53 54 54 55 55 56 56 57 57 58 58 59 59 60 61 61 61 62 63 64 65 65 66 66 66 65 65 64 63 61
30 31 31 30 28 26 23 21 20 19 19 19 19 19 18 18 17 16 15 14 14 14 15 16 17 19 21 23 24 26 28 29 31 33 34 36 37 38 40 41 43 44 46 47 47 49 50 51 51 52 53 54 55 55 56 57 57 57 58 58 58 59 59 59 59 60 60 60 61 61 61 62 63 64 65 65 66 66 66 66 66 65 65 64 63
27 28 29 29 29 28 25 23 21 20 19 19 19 19 19 18 18 18 17 16 16 15 15 15 15 16 17 18 20 21 23 25 27 29 32 34 36 38 40 42 44 46 48 49 50 52 53 53 54 55 55 56 57 57 58 58 59 59 60 60 61 61 62 62 63 63 63 63 63 63 63 64 64 64 65 66 66 66 66 66 66 66 65 64 63
24 25 26 27 27 27 26 25 23 22 21 21 20 20 19 19 18 18 17 17 17 17 16 16 17 17 18 18 19 20 21 23 24 26 28 30 32 34 36 39 41 44 46 48 50 52 54 55 56 57 58 59 59 59 59 60 60 60 60 61 61 62 62 63 64 64 65 65 65 65 65 66 66 66 66 67 67 67 67 66 66 66 65 65 64
22 23 23 24 24 25 24 24 23 23 22 22 21 21 21 20 19 19 18 17 17 17 16 16 16 17 17 18 19 20 21 22 23 25 26 27 29 31 33 35 37 40 42 44 47 49 51 53 54 56 58 59 61 62 62 62 62 62 62 62 63 63 63 64 64 64 65 65 65 65 65 66 66 66 67 67 67 67 67 67 67 66 65 65 64
21 21 21 22 22 22 22 22 22 22 21 21 21 21 21 21 21 20 20 19 19 18 18 18 18 17 17 18 18 19 20 20 21 23 24 25 27 29 31 33 35 37 40 42 44 46 48 50 51 52 54 56 57 59 60 61 62 62 62 63 63 63 63 63 63 63 63 63 64 64 64 64 65 65 65 65 65 65 65 65 65 65 64 64 63
19 19 20 20 20 20 20 20 21 20 20 20 20 20 20 20 20 20 20 20 20 20 19 19 19 19 20 20 20 21 21 22 23 24 25 26 28 29 31 33 35 37 39 41 43 45 47 49 50 51 51 52 53 54 54 55 56 57 57 58 58 58 58 59 59 59 59 59 59 60 60 61 62 62 63 63 63 63 63 62 62 62 62 61 60
18 18 18 19 19 19 18 18 19 19 19 19 18 18 18 18 19 19 19 20 20 20 20 20 20 21 21 22 22 23 24 24 25 26 27 28 30 31 33 35 37 38 40 41 42 44 45 48 49 50 51 51 52 52 52 52 52 52 53 53 53 54 54 55 55 55 55 56 56 57 58 59 60 61 61 62 62 62 62 61 61 61 60 58 58
18 17 17 18 18 18 18 18 18 17 17 17 17 17 17 18 18 18 19 20 20 21 22 22 23 23 24 24 25 25 26 27 28 29 30 31 32 33 35 37 39 41 42 44 44 45 45 46 48 49 51 51 51 51 52 52 51 51 51 51 51 52 52 53 52 52 53 53 54 55 56 57 58 59 60 61 61 62 62 62 62 61 59 57 57
19 18 18 17 18 18 18 18 18 18 18 18 18 18 18 18 19 19 20 21 22 23 24 25 26 27 28 29 29 30 30 31 32 32 33 34 35 36 37 39 41 44 46 47 48 48 47 46 46 48 50 51 51 51 50 51 51 51 51 50 50 50 51 50 50 50 50 51 51 52 53 54 55 56 57 58 58 59 60 60 61 60 59 57 55
21 20 20 19 18 18 19 19 19 19 19 19 19 19 20 20 21 21 22 23 24 25 27 28 29 31 32 33 34 34 34 35 36 36 37 38 38 39 40 41 43 46 48 50 51 51 51 49 47 47 48 49 51 51 50 49 49 50 50 50 50 50 49 49 48 48 48 48 49 50 51 52 53 54 55 56 56 57 57 57 57 58 57 56 55
24 23 22 22 21 20 20 21 21 21 21 21 21 22 22 22 23 24 24 25 26 27 28 30 31 33 34 36 36 37 37 38 39 39 40 40 41 41 42 43 45 47 49 51 52 53 52 51 49 47 46 47 49 50 50 48 47 47 47 48 49 49 48 48 47 47 47 47 48 49 50 51 52 54 55 56 57 57 57 57 56 55 54 54 54
27 26 26 25 24 23 23 23 23 23 24 24 24 24 24 25 25 26 26 27 28 28 29 31 32 33 35 37 38 39 40 41 41 41 42 43 43 44 44 45 46 48 50 52 54 54 53 51 49 47 45 45 45 47 47 47 46 45 45 45 46 46 46 46 46 46 46 46 47 48 49 50 52 53 55 56 57 58 57 57 55 53 52 51 51
28 28 28 28 27 26 25 25 25 25 26 26 26 27 27 27 28 28 29 29 30 30 31 32 32 34 35 37 39 40 42 43 43 43 44 44 45 46 46 46 47 49 52 54 55 55 54 51 48 46 44 42 42 42 43 43 43 43 43 43 43 43 44 44 44 44 45 45 46 47 48 49 50 51 52 52 52 53 54 53 52 51 49 49 49
30 29 29 29 29 29 28 28 27 27 27 27 28 28 29 29 29 30 30 31 31 31 32 32 33 34 36 37 39 41 43 44 45 45 46 46 47 48 48 48 49 51 53 55 57 57 54 50 47 44 41 40 39 38 38 39 39 39 40 41 40 40 40 41 42 42 43 44 44 44 45 46 47 47 46 46 45 45 46 47 47 46 46 46 47
32 31 30 30 30 30 30 30 30 29 29 29 29 29 29 30 30 31 31 32 32 32 33 33 34 35 36 38 39 41 43 45 46 47 47 47 48 50 50 51 51 53 55 57 58 57 54 50 45 42 38 36 35 34 33 34 35 36 38 38 37 36 37 38 39 40 40 41 41 41 42 43 43 42 41 40 39 39 39 41 41 41 42 43 44
33 33 32 32 31 31 31 31 31 31 31 31 30 30 30 30 31 31 32 33 33 33 34 34 35 35 36 38 39 41 42 45 46 47 47 48 49 50 52 52 53 55 56 58 58 57 53 48 44 39 35 33 31 30 30 31 32 34 35 34 33 33 34 35 36 37 37 37 37 37 38 38 38 37 36 35 33 33 34 35 36 37 38 39 40
35 34 34 33 33 32 32 32 32 31 31 32 32 32 32 31 31 31 32 33 33 34 34 35 35 36 37 37 39 40 42 44 46 46 47 47 48 50 52 53 54 56 58 59 59 57 53 47 42 37 33 30 28 27 28 29 30 31 31 31 30 31 32 33 34 34 34 34 34 34 33 33 32 32 31 30 29 28 29 30 32 33 34 34 35
37 36 35 34 33 33 33 33 33 33 33 33 33 32 32 32 32 32 32 33 34 34 34 35 36 37 37 38 39 41 43 45 46 46 46 47 48 50 51 52 54 56 58 59 59 57 52 45 40 35 31 28 27 26 26 27 28 29 28 29 30 30 31 32 32 31 31 31 31 31 30 28 27 27 27 27 26 26 27 28 29 30 30 30 30
38 37 36 35 34 34 34 33 33 34 34 34 34 34 33 33 33 33 33 33 34 34 35 35 36 37 38 39 41 42 44 45 46 46 46 47 48 50 51 52 54 56 58 59 58 55 50 44 38 33 30 28 26 26 26 26 26 26 27 28 29 30 30 31 30 30 29 29 29 28 27 25 24 23 22 23 24 25 26 27 27 28 28 27 26
38 38 37 36 36 35 34 34 34 34 34 34 34 35 35 35 34 34 34 34 34 35 35 36 36 37 38 40 41 43 44 45 46 46 46 47 48 49 50 52 54 57 58 58 57 54 49 43 37 32 29 27 26 25 25 25 25 26 27 29 29 29 29 30 30 29 28 28 27 26 25 24 22 21 20 20 21 22 23 24 24 24 24 23 22
38 38 37 37 36 36 35 35 34 34 34 34 34 34 34 35 35 35 35 35 35 35 35 36 37 37 38 40 41 42 44 45 46 46 46 47 48 49 49 51 54 56 58 58 56 53 48 42 36 31 28 26 25 24 23 24 25 26 27 28 28 28 28 28 28 28 28 28 27 26 25 23 22 20 20 19 19 20 20 20 21 21 21 21 21
38 38 37 37 36 36 36 35 35 34 34 34 34 34 34 33 34 35 35 35 35 35 35 36 36 37 38 40 41 42 43 44 45 45 46 47 48 48 48 50 53 56 57 57 55 51 46 41 36 31 27 26 24 23 23 23 25 26 26 26 25 25 25 26 27 27 27 27 27 26 25 24 22 21 20 19 19 19 19 19 19 19 20 20 21
37 37 37 36 36 36 36 36 35 34 34 34 34 34 33 33 33 33 34 34 34 35 35 35 36 37 38 40 41 42 43 44 44 45 46 47 47 47 47 49 52 55 56 56 54 50 45 40 35 30 27 25 25 24 23 23 23 24 23 22 22 22 23 24 24 24 24 25 25 25 24 24 23 21 20 20 19 19 19 19 19 19 19 19 19
36 36 36 36 36 36 36 36 35 34 34 34 34 34 34 33 33 32 32 33 33 34 34 35 35 36 38 39 40 41 42 43 43 44 45 46 46 46 46 48 51 54 55 55 53 48 44 40 35 31 27 25 25 25 23 21 20 20 21 21 21 21 21 21 21 21 21 21 21 21 21 21 21 20 19 18 18 18 18 18 18 18 18 18 18
34 35 35 35 35 36 36 35 35 35 34 34 34 34 34 33 33 32 32 32 33 33 34 35 35 36 37 38 39 40 41 42 43 43 44 45 45 45 45 47 50 53 54 54 52 47 42 39 36 31 27 25 25 26 23 20 17 17 18 19 19 19 18 18 18 18 18 19 19 19 19 19 18 18 17 17 17 17 17 17 17 17 18 18 19
33 33 33 33 34 35 35 35 35 34 34 34 35 35 34 34 33 33 33 33 33 33 34 34 35 36 37 38 39 40 41 41 42 42 43 44 44 44 44 45 48 51 52 53 50 46 41 39 36 32 28 25 25 25 25 21 18 15 14 13 14 14 15 16 16 17 18 19 20 20 20 19 19 18 18 17 17 17 17 17 17 18 18 19 19
32 32 32 32 33 33 34 34 34 34 34 34 34 34 34 34 34 34 34 34 34 34 34 34 35 36 37 38 38 39 40 41 41 42 43 44 44 43 43 44 46 49 51 51 49 45 40 38 37 34 30 27 25 25 25 24 21 18 16 14 13 13 14 16 17 18 19 20 20 20 20 20 19 19 18 18 18 18 18 18 18 19 19 20 20
30 31 32 32 33 33 33 34 34 34 34 34 34 34 34 34 34 34 34 34 34 34 34 35 35 35 36 37 37 38 39 40 40 41 43 43 43 42 42 42 44 46 48 49 48 44 39 37 37 35 32 28 26 25 25 24 23 22 20 19 17 17 17 18 18 19 19 19 19 19 18 18 18 18 18 18 18 18 18 19 19 20 20 21 22
29 30 31 32 32 33 33 33 33 33 33 33 33 33 33 33 33 34 34 35 35 35 35 35 35 35 36 36 37 37 38 38 39 40 41 42 43 42 42 42 42 44 46 48 47 44 39 36 36 36 34 30 27 26 25 25 24 24 23 22 21 20 20 20 19 19 18 18 17 17 17 17 18 19 19 19 19 19 19 20 21 21 22 23 24
29 30 31 32 33 33 33 33 33 33 33 33 32 32 32 32 33 34 34 35 35 35 36 36 36 36 36 36 36 36 37 37 38 39 40 41 42 42 42 41 41 42 44 45 46 44 40 36 35 36 35 32 29 27 26 25 25 25 24 24 23 22 22 21 21 20 18 17 17 17 17 17 18 19 19 20 20 20 21 21 22 23 24 25 25
30 30 31 32 33 33 33 34 33 33 33 32 32 32 32 32 33 34 34 35 35 35 36 36 36 36 35 35 36 36 36 37 37 38 39 40 41 41 41 41 41 41 41 43 44 44 41 37 35 34 35 35 32 29 27 26 26 25 25 25 24 24 23 23 22 21 20 19 18 18 18 19 19 20 20 21 21 22 22 23 24 24 25 26 26
32 31 31 31 32 33 33 33 33 33 33 33 33 32 32 32 32 33 34 34 35 36 36 36 36 36 35 36 36 36 36 36 37 37 38 39 40 41 41 41 40 40 40 41 42 43 42 39 36 34 34 34 34 32 30 28 27 26 25 25 25 25 24 24 24 23 22 21 20 19 20 20 21 22 22 22 23 23 24 25 26 26 26 27 27
33 33 32 32 32 32 32 33 33 33 34 34 33 33 32 32 32 33 33 34 35 35 36 36 36 36 36 36 35 35 35 36 36 37 38 38 39 40 40 40 40 40 40 40 41 41 42 40 38 35 34 34 34 34 32 30 28 27 26 25 25 25 25 25 25 24 23 22 22 22 22 22 22 23 24 24 25 26 26 27 28 28 28 28 28
35 34 34 34 33 33 33 33 33 33 33 34 34 33 33 33 33 33 33 34 34 35 35 36 36 36 36 36 35 35 35 35 35 36 37 38 39 40 40 40 40 40 40 40 40 40 41 41 39 37 35 34 33 33 33 32 30 28 27 26 26 25 25 26 26 26 25 25 24 24 24 24 24 25 26 26 27 28 28 29 29 29 29 29 30
37 36 35 35 35 34 34 33 33 33 33 34 33 33 34 34 34 34 34 33 33 34 34 35 35 36 36 36 35 35 34 34 35 35 36 37 38 39 40 40 39 39 39 40 40 40 40 41 41 39 37 35 33 33 33 32 32 30 28 28 27 26 26 26 26 26 26 27 27 26 26 26 27 27 28 29 29 30 30 30 30 30 31 30 30
38 38 37 36 35 35 34 34 33 33 33 34 34 34 34 34 34 34 34 34 33 33 33 33 34 35 35 35 35 35 34 34 34 35 36 37 38 39 40 40 39 39 39 39 40 40 40 40 41 41 39 37 35 33 32 32 32 32 30 29 29 28 27 26 26 26 26 27 28 28 28 28 29 29 30 30 31 31 32 32 32 32 32 32 32
39 39 38 37 36 35 35 34 33 33 33 33 33 34 34 35 35 35 35 34 34 33 33 33 33 33 34 34 35 34 34 34 34 34 35 37 38 39 40 40 39 39 39 39 39 40 40 40 40 41 41 39 37 35 33 32 32 32 32 31 30 30 29 29 28 27 27 27 28 28 29 29 30 30 31 32 32 33 33 33 33 33 33 33 33
40 40 39 37 36 35 35 34 34 33 33 33 33 33 34 35 35 36 36 35 34 34 33 33 32 32 32 33 34 34 34 34 34 34 35 36 38 39 40 40 40 39 39 39 39 39 40 40 40 40 41 41 40 38 35 34 33 32 32 32 31 31 30 31 30 29 29 29 29 29 30 30 30 31 32 32 33 34 34 34 34 34 34 35 35
40 40 39 38 37 36 35 34 34 34 33 32 32 33 34 34 35 36 36 36 35 35 34 33 33 32 31 31 32 33 33 34 34 34 35 36 38 39 40 40 40 40 39 39 39 39 39 39 40 40 40 41 41 40 38 36 34 33 33 33 32 32 31 31 32 32 31 31 30 30 31 31 31 31 32 32 33 34 34 35 35 35 36 36 36
40 40 39 38 37 36 36 35 34 33 32 32 32 32 32 33 34 35 35 35 35 35 35 34 33 32 30 30 31 32 33 33 34 34 35 36 38 39 40 41 41 41 40 40 39 39 39 39 39 40 40 40 41 41 40 38 36 35 34 33 33 33 33 32 32 33 33 33 33 32 32 31 31 31 31 32 33 33 34 35 35 36 36 37 37
Wind_Direction
44 45 48 52 52 47 316 251 250 259 265 266 265 265 264 262 260 258 255 253 252 252 251 250 250 249 250 251 252 252 253 253 253 254 255 256 256 257 257 257 257 258 258 259 259 258 258 257 257 257 257 258 259 260 261 262 263 264 264 265 265 265 265 266 267 266 265 263 262 262 262 263 264 265 266 267 268 268 269 269 270 272 274 276 278
40 42 45 45 41 43 38 296 260 262 268 270 268 267 268 267 266 264 262 260 259 258 257 257 256 255 254 254 254 254 255 256 256 256 256 257 257 257 257 258 258 259 259 259 260 260 260 259 259 260 260 260 261 262 262 262 262 263 264 265 265 265 264 265 265 265 264 263 262 261 261 262 263 265 266 267 268 268 268 268 270 272 274 277 279
24 25 26 25 17 11 4 344 308 281 273 271 271 271 271 270 268 266 264 263 263 262 261 260 260 259 259 259 259 258 258 258 258 258 258 258 259 259 260 260 261 261 261 261 262 262 262 262 262 263 264 264 264 264 263 264 264 264 264 265 265 265 264 264 265 265 264 263 263 263 263 263 264 265 267 268 268 269 269 270 272 273 275 278 280
10 4 0 355 346 335 321 311 303 294 284 276 273 272 271 271 269 268 267 265 264 263 262 261 260 260 260 260 261 261 261 261 261 261 261 261 261 261 261 262 263 263 263 263 263 263 263 263 263 263 264 264 264 265 265 265 265 265 265 265 265 265 265 265 265 265 265 264 264 264 264 264 265 266 268 269 270 271 272 273 273 274 276 278 278
13 6 355 341 328 315 304 296 288 284 283 280 275 271 270 269 269 268 268 267 267 266 265 264 263 262 262 262 262 262 262 263 263 264 264 264 264 264 264 264 264 264 265 265 265 265 265 264 263 263 263 263 263 264 265 265 264 264 264 265 266 266 266 266 266 265 265 264 264 264 265 265 266 268 270 271 272 272 272 273 273 274 275 275 274
18 17 11 0 343 322 305 295 288 283 281 280 277 274 270 268 267 267 267 267 267 267 268 268 268 267 267 266 266 266 266 266 266 266 266 266 266 266 266 266 266 266 266 267 267 267 267 266 266 265 265 264 264 264 264 265 265 264 265 265 266 266 266 266 266 266 266 266 266 266 267 268 269 270 271 271 271 272 272 273 273 274 274 273 272
21 20 19 16 8 355 333 312 297 289 284 282 281 279 278 275 273 271 271 270 270 270 270 270 270 271 271 271 271 271 271 271 271 270 270 269 269 269 269 269 269 269 269 269 268 268 268 268 268 267 267 267 266 266 266 266 266 267 267 267 267 267 267 268 268 268 268 268 268 268 269 269 270 270 269 269 270 270 271 271 271 272 272 271 272
24 22 21 19 17 13 4 351 333 314 300 291 285 282 281 280 279 279 279 278 278 278 278 278 277 277 277 277 276 276 276 276 275 275 275 274 274 274 273 273 273 273 272 272 272 271 270 270 269 269 269 268 268 267 267 266 266 266 266 266 266 266 267 267 267 267 267 268 268 268 268 268 268 268 268 268 268 269 269 269 270 271 272 272 272
26 25 23 22 20 17 14 10 4 354 342 326 312 300 291 286 283 281 281 281 281 282 282 283 283 284 284 284 283 283 283 282 281 281 280 279 279 278 277 276 276 275 274 274 273 273 273 273 272 272 271 271 270 269 269 268 268 268 267 267 267 267 267 267 267 267 266 266 266 267 267 267 267 268 268 268 268 269 270 270 271 272 272 273 273
27 27 26 24 23 22 20 18 16 14 12 7 359 348 333 318 306 298 291 287 284 282 282 281 282 283 283 284 285 285 285 285 285 284 284 283 283 282 281 280 279 278 277 276 275 274 274 274 274 274 273 273 272 272 271 271 270 270 270 270 270 270 270 270 270 270 269 269 269 269 269 269 269 269 269 269 270 270 271 271 272 272 272 273 273
26 27 27 27 26 25 26 26 26 26 26 25 24 21 14 4 351 338 325 313 303 295 290 286 284 282 282 281 281 282 282 283 283 284 284 284 284 283 283 282 281 280 279 278 277 276 275 274 274 273 273 273 272 272 272 272 272 272 271 271 271 271 271 271 271 271 271 270 270 270 270 270 269 269 269 270 270 270 271 271 271 272 272 272 272
25 26 27 28 28 28 28 28 29 30 29 29 28 26 23 19 14 8 359 349 337 325 315 306 299 294 290 287 285 284 283 283 283 283 283 283 283 283 282 282 281 281 280 279 278 277 277 276 275 274 273 272 271 271 271 271 271 271 271 271 271 271 271 271 271 270 270 270 270 270 270 270 269 269 269 269 269 270 270 271 271 271 271 272 272
23 23 25 27 28 29 29 28 27 26 25 23 22 20 18 16 14 12 9 4 359 352 343 335 327 320 313 307 303 299 295 293 291 290 288 287 286 285 284 282 281 281 280 279 278 277 277 276 275 274 273 273 272 271 270 270 269 269 269 269 270 270 270 270 270 270 270 269 269 270 270 269 269 269 269 269 270 270 271 271 271 271 271 271 271
16 19 21 24 25 27 28 28 28 27 25 24 22 20 18 15 13 11 8 5 1 357 352 346 340 335 330 325 320 316 312 308 305 303 301 299 297 295 292 290 287 285 283 282 280 279 277 276 275 275 274 273 273 272 271 270 270 270 270 270 270 270 270 270 270 270 270 270 270 269 270 270 270 270 270 270 270 271 271 271 271 271 271 271 271
7 11 15 18 20 22 24 25 26 26 26 25 24 22 21 19 17 14 12 8 4 359 354 349 344 339 333 329 325 321 318 316 314 312 311 310 308 306 304 302 299 296 293 290 287 285 282 280 277 276 275 274 273 273 272 272 272 271 271 271 271 271 271 271 271 271 271 271 271 271 270 270 270 270 270 270 271 271 271 271 271 271 271 271 271
357 0 5 10 13 16 17 18 20 21 22 21 20 19 17 15 13 12 10 8 6 3 359 356 351 348 343 339 334 330 327 325 322 320 319 318 317 316 314 312 309 306 303 299 295 292 288 285 282 280 277 276 274 273 273 272 272 272 272 272 271 271 272 271 271 271 271 271 271 271 271 271 271 271 270 271 271 271 271 271 271 271 270 270 270
346 349 353 358 3 6 8 10 11 13 15 15 14 12 11 9 7 5 4 2 1 359 357 354 351 348 345 341 337 334 331 328 326 324 322 321 320 319 319 317 316 313 310 306 302 297 292 288 285 282 280 278 276 275 274 273 273 272 272 272 272 272 272 271 271 271 271 272 272 272 271 271 271 271 270 270 270 270 270 270 270 269 269 269 269
333 338 341 346 350 354 356 358 1 3 4 5 5 4 2 1 359 358 356 354 353 352 351 349 347 344 342 339 337 334 331 328 326 324 322 321 320 320 320 320 319 318 317 314 310 304 297 290 284 281 279 277 276 275 274 273 273 272 272 272 272 271 271 271 272 273 273 273 273 273 273 273 272 271 271 270 270 269 269 269 268 268 268 268 268
320 324 329 333 336 339 342 345 347 350 351 352 353 353 353 352 351 350 349 348 347 346 345 345 343 342 340 339 338 337 335 333 332 329 326 324 322 321 321 322 323 323 322 321 318 313 306 296 288 281 277 275 274 274 272 271 271 271 271 271 271 271 270 271 272 273 274 274 275 275 275 274 274 273 272 272 271 270 269 268 268 267 267 267 267
310 312 315 319 323 325 328 330 333 335 337 337 338 339 340 341 341 341 341 341 341 341 341 340 340 340 339 338 337 337 336 335 335 334 332 330 327 325 324 324 325 326 326 325 323 320 314 305 295 286 279 274 272 271 271 270 269 269 269 270 270 270 271 271 272 273 274 275 276 276 276 275 275 274 273 273 272 271 270 268 267 266 266 266 266
303 304 305 307 309 312 315 317 319 321 323 324 326 327 328 329 330 332 333 334 334 335 335 335 336 337 337 336 336 335 335 334 334 334 333 333 331 329 327 326 327 328 328 327 325 323 318 311 301 292 285 278 272 269 269 269 269 269 269 269 269 270 271 272 273 274 276 277 277 277 277 276 275 274 273 273 272 271 270 269 267 266 265 264 264
297 298 300 300 301 303 304 306 308 310 312 313 315 316 318 319 321 322 324 325 327 328 329 331 332 333 334 334 334 333 333 333 332 332 332 332 332 331 329 328 328 329 329 328 327 324 320 313 304 296 289 283 276 270 268 268 269 270 271 270 270 270 272 273 274 276 277 278 279 278 277 276 276 275 274 273 272 271 270 269 268 266 265 263 262
295 295 295 296 297 297 298 299 300 302 303 305 307 308 310 311 312 314 315 317 319 321 323 325 327 329 330 330 331 332 332 331 330 330 330 330 331 331 330 329 329 329 329 329 328 326 321 315 307 299 292 286 280 273 268 267 268 270 272 272 271 271 271 273 275 277 278 279 279 279 278 278 278 277 276 275 273 271 270 268 267 267 265 263 262
297 295 294 293 293 294 295 295 296 298 299 300 301 303 304 306 307 308 310 311 313 315 317 320 322 324 325 326 328 329 329 329 329 328 328 328 329 330 331 330 330 330 331 330 329 327 323 317 309 301 294 288 282 275 269 267 268 270 273 274 272 271 271 272 274 277 278 280 280 280 280 281 282 281 280 278 275 272 269 267 265 264 264 262 261
296 295 295 294 293 292 292 293 294 295 296 297 298 299 301 302 303 305 306 307 309 311 313 315 317 319 321 322 324 326 327 327 327 327 327 327 328 330 331 331 331 332 332 332 331 329 325 320 312 305 298 291 284 276 270 267 268 270 273 274 272 270 270 272 274 277 278 280 281 283 284 285 286 285 283 281 278 272 267 263 261 260 260 259 259
293 293 293 294 294 294 293 293 293 293 294 295 296 297 298 299 300 302 303 304 306 308 310 312 314 316 318 319 322 323 325 326 326 326 326 327 328 329 331 332 332 333 333 333 332 330 326 322 316 308 301 293 286 278 272 269 269 271 273 273 271 270 270 272 275 277 280 282 285 287 288 290 290 288 287 285 280 272 265 260 257 257 257 257 257
289 290 290 291 292 293 294 294 294 294 294 294 294 295 296 298 299 301 302 303 304 306 308 310 312 314 315 317 319 321 323 324 325 325 326 327 328 329 331 332 333 334 334 334 333 331 327 323 318 311 304 296 288 280 275 273 272 274 274 273 270 270 272 274 276 280 283 285 287 289 291 292 292 290 288 286 281 274 267 262 257 256 256 257 258
286 286 287 288 289 290 291 292 293 294 295 294 294 295 295 296 298 300 302 303 303 305 306 308 310 312 313 315 317 319 321 323 324 324 325 326 328 329 331 332 333 334 335 335 334 332 329 325 320 314 306 298 290 283 279 277 277 276 274 271 270 271 273 275 278 281 285 286 287 289 292 294 294 291 288 284 280 274 269 264 259 257 257 258 259
282 283 284 285 286 287 288 290 291 293 294 295 295 295 295 295 296 298 300 301 302 303 305 307 309 311 313 314 316 318 320 322 323 324 325 326 328 329 331 333 334 335 336 336 335 332 330 326 321 315 308 301 294 288 284 282 280 278 274 272 272 274 275 276 277 281 285 287 288 290 294 296 296 293 288 284 279 273 267 262 259 257 257 258 258
280 281 282 283 284 285 286 287 288 290 292 293 294 295 295 295 296 297 298 300 301 303 305 307 309 311 313 314 316 318 320 322 324 325 325 327 329 330 332 333 335 336 336 337 336 333 330 327 322 316 309 302 297 292 289 286 283 279 275 274 275 276 276 275 276 280 285 288 289 290 293 295 297 295 291 286 280 274 268 263 260 258 258 258 258
279 280 280 282 283 284 285 285 286 288 290 291 293 295 296 297 298 298 299 300 302 304 306 308 309 311 313 314 316 319 320 322 324 325 326 327 329 331 332 334 336 337 337 338 337 335 331 328 323 317 309 303 298 295 292 289 285 280 277 277 277 277 276 275 276 279 283 286 287 289 290 292 292 291 289 285 279 274 269 265 263 261 261 260 259
280 280 280 281 282 283 284 285 285 287 288 290 291 293 295 297 298 299 299 300 302 304 306 308 309 311 312 314 316 318 320 322 324 325 325 327 330 332 333 335 337 338 339 339 338 336 332 329 324 318 310 304 300 297 294 291 287 283 281 280 279 278 277 276 277 279 281 282 284 286 287 288 288 286 283 280 276 272 269 266 264 262 260 259 258
281 281 281 282 283 284 284 284 285 286 288 289 290 292 293 295 297 298 299 300 302 303 305 307 309 310 312 314 316 318 320 322 324 324 325 328 331 333 334 336 338 339 340 340 339 337 333 330 326 320 313 309 306 302 298 295 292 288 285 282 280 278 278 278 278 279 280 281 282 283 283 283 283 282 280 278 275 273 269 266 264 261 259 258 256
283 283 283 283 284 284 285 285 286 287 288 289 290 292 293 294 295 297 298 299 301 303 304 306 308 309 311 313 316 318 320 322 324 324 326 329 332 334 335 337 338 340 341 341 341 338 335 332 328 321 316 315 314 308 302 297 294 290 286 282 280 279 279 279 280 281 282 282 281 280 278 277 276 276 275 274 272 271 269 265 263 261 258 256 255
285 284 284 285 285 286 286 286 287 288 289 290 291 292 292 293 294 295 296 298 300 301 303 305 306 308 310 313 315 317 320 322 324 325 326 330 333 335 336 338 339 341 343 343 342 340 337 334 330 324 318 320 321 315 306 297 293 290 287 284 282 281 280 280 280 281 280 279 278 275 273 271 271 271 271 271 269 267 265 263 261 259 258 257 257
289 285 285 286 287 288 288 289 289 290 291 292 292 292 293 293 294 295 296 297 298 299 301 303 305 307 310 312 315 318 320 322 324 324 326 330 333 335 337 338 340 342 344 344 344 342 339 336 333 327 320 320 324 320 311 301 296 294 291 288 285 281 279 278 278 277 277 276 275 273 271 269 268 268 268 267 265 263 262 261 260 259 259 258 258
293 289 287 287 288 289 290 290 291 292 293 293 293 293 294 294 294 295 295 296 297 298 300 302 305 308 310 313 315 318 321 322 323 324 326 329 333 336 337 339 340 343 345 346 345 343 340 338 336 330 322 318 322 322 315 306 298 295 292 289 286 283 280 279 278 278 278 277 276 274 272 269 267 265 264 263 262 261 260 260 260 260 260 260 260
297 293 291 290 290 291 291 292 292 293 293 294 294 295 296 296 295 295 295 295 296 297 299 301 305 307 310 313 315 318 321 323 324 325 327 330 333 336 337 339 341 343 346 347 346 343 341 340 339 335 326 318 317 320 317 309 300 294 289 287 287 286 284 282 282 281 280 279 277 276 274 271 269 266 264 263 262 262 263 263 263 264 264 265 266
302 298 295 293 293 292 292 293 293 293 294 294 295 296 297 297 296 296 295 295 296 297 299 301 304 307 309 312 315 317 320 322 324 325 327 330 333 335 337 339 341 344 346 347 346 344 341 340 340 339 332 322 316 317 318 313 305 297 292 289 289 289 287 285 284 284 282 280 279 278 277 277 275 273 271 270 270 271 271 271 272 272 272 272 272
306 302 298 296 295 294 294 293 293 293 294 295 296 297 297 298 297 296 296 296 296 297 299 301 304 306 308 311 313 316 318 321 323 325 327 330 333 334 336 338 341 344 346 348 347 344 341 339 340 340 337 328 319 315 316 315 310 303 297 293 292 293 293 291 288 285 283 282 281 280 280 280 280 279 278 278 278 277 277 277 277 277 277 276 276
309 305 301 298 296 295 295 294 294 294 294 295 296 297 297 297 297 296 296 295 296 297 299 301 303 305 307 309 312 314 317 320 321 323 326 329 332 333 334 337 340 343 346 347 347 345 341 338 338 340 340 335 325 317 314 315 314 310 304 299 296 296 297 297 293 287 283 281 283 283 282 281 280 280 280 281 280 280 279 279 279 278 278 277 278
313 308 303 301 299 297 296 295 294 294 295 295 295 296 297 297 297 296 296 296 296 297 299 301 302 304 306 308 310 313 316 319 320 322 325 329 331 332 333 335 338 341 344 347 347 346 342 338 335 336 339 339 333 324 315 312 313 313 310 305 301 299 299 299 296 291 285 281 281 282 283 282 281 280 279 279 280 279 279 278 277 277 277 278 278
317 313 308 303 300 299 298 297 296 296 296 296 296 296 296 296 296 296 296 296 296 297 298 300 301 303 304 306 309 311 314 317 319 321 325 328 330 331 332 333 335 339 342 345 347 346 344 339 334 333 334 337 337 332 323 314 310 310 311 308 303 300 299 299 297 294 288 283 280 279 280 281 281 281 280 280 278 277 276 276 275 275 275 276 278
316 316 313 309 304 300 298 297 297 297 296 296 296 296 296 296 296 297 297 296 296 296 296 297 299 301 303 305 307 310 313 316 318 320 323 327 329 330 331 331 333 336 340 343 345 346 345 342 337 332 330 332 334 335 331 322 313 308 307 307 305 301 298 298 297 295 290 285 282 279 278 278 278 278 278 278 277 276 275 275 274 275 276 277 278
313 313 314 313 310 306 302 298 297 297 297 296 296 296 296 296 297 296 296 296 295 295 295 295 297 300 302 304 306 308 311 314 316 319 322 325 327 329 329 330 331 334 337 340 343 345 345 344 341 335 331 328 329 331 332 329 321 312 305 304 303 301 298 296 296 295 292 288 284 282 279 278 277 276 275 275 275 275 274 275 275 276 277 278 280
312 311 311 312 313 311 308 303 300 298 297 296 296 295 295 296 296 296 296 295 295 294 294 294 296 298 300 303 305 307 309 312 314 317 320 323 326 327 328 328 329 331 334 337 340 342 344 344 343 340 335 329 326 326 328 329 327 320 311 304 301 299 298 295 295 295 294 292 288 285 282 280 279 277 277 276 275 274 274 274 275 275 276 278 279
314 311 310 310 311 312 311 309 305 301 298 297 296 295 294 294 294 294 294 294 294 293 293 293 295 296 298 300 303 305 307 309 312 315 319 321 324 325 327 327 328 329 331 333 336 339 341 342 343 342 339 334 328 324 323 324 325 324 319 310 302 298 296 295 293 292 292 292 291 290 288 286 284 282 280 279 278 277 276 276 275 275 276 276 277
315 313 310 309 309 309 310 310 308 305 301 298 296 295 294 293 292 292 292 293 293 293 293 293 293 295 296 298 300 303 305 307 310 313 317 320 322 323 325 326 326 327 328 330 332 335 338 340 341 341 340 337 333 327 323 320 320 321 321 317 310 301 296 294 292 290 289 289 289 290 290 289 288 287 285 283 282 280 279 278 277 277 277 276 277
315 314 311 309 308 308 307 307 307 306 305 302 298 296 294 293 292 292 292 292 292 292 292 292 292 293 294 296 299 301 304 306 308 311 315 318 320 321 323 324 324 325 326 327 329 331 334 336 338 339 339 338 336 331 326 321 317 316 317 317 315 309 301 295 292 290 288 287 286 287 288 288 288 288 287 286 285 283 281 280 279 279 278 277 278
314 313 311 308 306 306 305 304 304 305 306 305 303 301 298 297 295 294 294 293 293 293 293 292 292 291 292 295 297 300 302 304 307 310 313 316 318 319 321 322 323 323 324 325 326 328 330 332 334 336 337 337 336 334 330 324 319 315 313 312 313 312 308 301 294 290 288 287 286 285 285 286 286 286 286 285 285 284 283 282 281 280 279 279 279
313 312 310 307 304 303 303 303 303 304 306 307 306 305 304 302 300 298 297 296 296 295 295 294 292 291 292 294 296 298 301 303 305 308 311 314 316 317 319 320 321 322 322 322 323 325 326 328 330 332 333 334 334 333 331 327 322 317 312 309 309 309 309 306 301 294 289 287 286 286 285 284 284 284 284 284 283 283 282 282 281 281 280 280 280
Height
5560 5560 5561 5561 5562 5562 5563 5563 5564 5565 5567 5567 5569 5570 5571 5572 5572 5573 5574 5575 5576 5577 5578 5579 5580 5581 5582 5583 5584 5585 5586 5587 5588 5589 5589 5590 5590 5591 5591 5592 5593 5594 5594 5595 5595 5595 5596 5597 5597 5597 5597 5598 5598 5597 5597 5596 5595 5595 5595 5595 5595 5595 5594 5594 5597 5601 5601 5599 5600 5599 5598 5597 5597 5597 5596 5597 5596 5595 5595 5595 5594 5593 5593 5593 5592
5562 5562 5562 5562 5562 5562 5562 5563 5564 5565 5565 5566 5567 5568 5568 5569 5570 5570 5571 5572 5573 5573 5574 5575 5576 5577 5577 5578 5579 5580 5581 5581 5582 5583 5583 5584 5584 5584 5585 5585 5586 5587 5587 5588 5588 5588 5588 5589 5590 5589 5589 5590 5591 5590 5590 5589 5588 5588 5587 5587 5587 5586 5586 5586 5587 5591 5593 5591 5590 5590 5589 5589 5589 5589 5588 5588 5588 5587 5588 5587 5586 5586 5586 5585 5585
5563 5562 5562 5562 5562 5562 5562 5562 5563 5563 5564 5565 5565 5566 5566 5567 5567 5568 5568 5569 5570 5570 5571 5571 5572 5572 5573 5574 5574 5575 5575 5576 5576 5577 5577 5578 5578 5578 5579 5579 5580 5580 5580 5581 5581 5581 5581 5582 5582 5581 5581 5581 5582 5582 5581 5581 5580 5580 5580 5579 5579 5578 5577 5577 5578 5581 5583 5583 5582 5582 5581 5581 5581 5581 5580 5580 5579 5579 5579 5578 5578 5578 5578 5578 5577
5564 5563 5562 5561 5561 5561 5561 5561 5562 5562 5563 5563 5563 5563 5564 5564 5564 5565 5565 5566 5566 5567 5567 5568 5568 5569 5569 5569 5570 5570 5570 5571 5571 5571 5572 5572 5572 5572 5572 5573 5573 5573 5573 5573 5573 5573 5574 5574 5574 5573 5573 5574 5574 5573 5572 5572 5572 5571 5571 5570 5570 5570 5569 5569 5570 5571 5573 5575 5575 5574 5573 5573 5572 5572 5571 5571 5571 5570 5570 5570 5570 5570 5570 5569 5569
5563 5562 5561 5561 5560 5560 5559 5560 5560 5560 5560 5561 5561 5561 5561 5562 5562 5562 5562 5563 5563 5563 5564 5564 5564 5565 5565 5565 5565 5566 5566 5566 5566 5567 5567 5567 5566 5566 5566 5566 5566 5566 5566 5566 5566 5566 5566 5566 5566 5565 5565 5565 5565 5565 5564 5564 5563 5563 5563 5562 5562 5561 5561 5561 5561 5562 5563 5566 5566 5565 5565 5564 5564 5564 5563 5563 5562 5562 5562 5562 5561 5561 5561 5560 5560
5562 5561 5560 5560 5559 5559 5558 5558 5558 5558 5558 5558 5558 5558 5559 5559 5559 5559 5559 5560 5560 5560 5560 5560 5561 5561 5561 5561 5561 5561 5562 5562 5562 5562 5562 5561 5561 5561 5561 5560 5560 5560 5560 5559 5559 5559 5559 5558 5558 5557 5557 5557 5557 5556 5556 5555 5555 5555 5555 5555 5554 5553 5553 5553 5553 5553 5555 5556 5557 5557 5556 5556 5556 5556 5555 5554 5554 5554 5553 5553 5552 5552 5552 5552 5551
5563 5561 5560 5559 5558 5557 5557 5556 5556 5556 5556 5556 5556 5556 5556 5556 5556 5557 5557 5557 5557 5557 5557 5557 5557 5557 5557 5557 5557 5557 5557 5557 5557 5557 5557 5557 5556 5556 5556 5555 5555 5555 5554 5554 5553 5552 5552 5551 5551 5550 5549 5549 5549 5548 5548 5548 5548 5548 5548 5547 5546 5546 5546 5546 5545 5545 5546 5547 5548 5548 5548 5548 5547 5547 5547 5545 5545 5545 5544 5543 5544 5544 5543 5543 5543
5564 5562 5560 5559 5557 5556 5555 5555 5554 5554 5553 5553 5553 5553 5554 5554 5554 5554 5554 5554 5554 5554 5554 5554 5555 5555 5554 5554 5554 5554 5553 5553 5553 5552 5552 5552 5552 5551 5551 5550 5550 5549 5548 5547 5547 5546 5545 5544 5544 5543 5542 5542 5542 5541 5541 5541 5541 5541 5540 5539 5539 5539 5539 5538 5538 5538 5539 5539 5540 5540 5540 5540 5540 5539 5538 5537 5536 5536 5535 5534 5536 5536 5535 5535 5536
5566 5564 5562 5560 5558 5556 5555 5554 5553 5552 5551 5551 5551 5551 5551 5551 5551 5551 5551 5551 5551 5551 5551 5551 5551 5551 5551 5551 5551 5550 5550 5550 5549 5549 5548 5547 5547 5546 5546 5545 5544 5543 5542 5541 5540 5539 5539 5538 5537 5536 5536 5535 5535 5534 5534 5533 5533 5533 5532 5531 5531 5531 5531 5530 5530 5531 5531 5531 5532 5531 5531 5532 5532 5530 5530 5529 5528 5527 5526 5526 5528 5528 5526 5527 5528
5569 5566 5564 5561 5559 5558 5556 5555 5553 5552 5551 5550 5550 5549 5549 5548 5548 5548 5548 5548 5548 5548 5548 5548 5548 5548 5548 5548 5547 5547 5547 5546 5546 5545 5544 5544 5543 5542 5541 5540 5539 5538 5537 5536 5535 5534 5533 5532 5531 5530 5529 5528 5527 5527 5526 5525 5525 5525 5524 5523 5523 5522 5522 5522 5522 5522 5522 5522 5523 5522 5522 5523 5523 5521 5520 5520 5518 5518 5518 5518 5519 5518 5518 5519 5520
5571 5568 5566 5563 5561 5559 5558 5556 5555 5553 5552 5551 5550 5549 5548 5547 5546 5546 5545 5545 5545 5545 5545 5545 5544 5544 5544 5544 5543 5543 5543 5542 5541 5541 5540 5539 5539 5538 5536 5535 5534 5532 5531 5530 5529 5528 5527 5526 5525 5524 5522 5521 5520 5519 5518 5518 5517 5516 5516 5515 5515 5514 5514 5514 5514 5513 5513 5513 5514 5513 5513 5514 5513 5512 5511 5510 5509 5508 5509 5509 5509 5509 5509 5510 5511
5573 5571 5568 5566 5563 5561 5559 5557 5556 5554 5553 5552 5551 5549 5548 5547 5546 5545 5544 5543 5543 5542 5542 5541 5541 5541 5540 5540 5539 5539 5539 5538 5537 5536 5535 5535 5534 5533 5531 5530 5528 5526 5525 5524 5523 5521 5520 5519 5518 5517 5515 5514 5513 5512 5511 5510 5509 5508 5507 5506 5506 5505 5505 5505 5504 5504 5503 5504 5504 5504 5504 5504 5503 5502 5501 5501 5500 5499 5500 5500 5500 5500 5500 5501 5502
5575 5573 5570 5568 5565 5563 5561 5559 5557 5555 5554 5552 5551 5550 5548 5547 5546 5545 5544 5543 5542 5541 5540 5539 5539 5538 5537 5537 5536 5535 5535 5534 5533 5532 5531 5530 5528 5527 5526 5524 5522 5520 5518 5517 5516 5514 5513 5511 5510 5508 5507 5505 5504 5503 5502 5501 5500 5499 5498 5498 5497 5496 5496 5495 5494 5494 5494 5494 5494 5495 5494 5493 5493 5493 5492 5491 5491 5491 5490 5490 5490 5490 5491 5492 5492
5576 5574 5571 5569 5567 5565 5563 5560 5558 5556 5555 5553 5551 5550 5549 5547 5546 5545 5544 5543 5541 5540 5539 5538 5537 5536 5535 5535 5534 5533 5532 5530 5529 5528 5526 5525 5523 5522 5520 5518 5516 5514 5512 5510 5508 5507 5505 5503 5502 5500 5498 5496 5495 5494 5493 5492 5491 5490 5489 5489 5488 5487 5486 5485 5484 5484 5483 5483 5484 5484 5484 5483 5483 5483 5482 5481 5481 5481 5481 5481 5480 5480 5481 5482 5482
5576 5574 5572 5570 5568 5566 5564 5562 5560 5558 5556 5554 5552 5551 5549 5548 5546 5545 5544 5543 5541 5540 5539 5538 5536 5535 5534 5533 5532 5530 5529 5528 5526 5524 5523 5521 5519 5517 5515 5513 5510 5508 5506 5503 5501 5499 5496 5494 5493 5491 5489 5487 5485 5484 5483 5482 5482 5481 5480 5479 5478 5477 5476 5475 5474 5473 5473 5473 5473 5473 5473 5472 5472 5472 5471 5470 5471 5471 5471 5471 5470 5470 5471 5471 5472
5576 5574 5572 5570 5568 5566 5564 5562 5561 5559 5557 5555 5553 5551 5550 5548 5547 5545 5544 5542 5541 5540 5538 5537 5535 5534 5532 5531 5529 5528 5527 5525 5523 5521 5520 5518 5516 5513 5511 5508 5506 5503 5500 5497 5494 5491 5488 5486 5484 5482 5479 5477 5475 5474 5473 5472 5471 5471 5470 5469 5468 5467 5467 5465 5464 5463 5463 5463 5463 5463 5462 5462 5461 5461 5460 5460 5460 5460 5460 5460 5461 5460 5460 5461 5462
5575 5573 5572 5570 5568 5566 5564 5562 5561 5559 5557 5555 5554 5552 5550 5549 5547 5546 5544 5542 5541 5539 5538 5536 5535 5533 5531 5530 5528 5526 5524 5522 5520 5518 5516 5514 5512 5509 5507 5504 5501 5498 5494 5491 5487 5484 5480 5477 5475 5473 5470 5468 5466 5465 5463 5462 5462 5461 5460 5459 5458 5458 5457 5455 5454 5454 5454 5453 5453 5453 5452 5452 5451 5451 5450 5450 5450 5449 5450 5451 5451 5450 5450 5452 5453
5574 5572 5571 5569 5567 5565 5564 5562 5560 5558 5557 5555 5553 5552 5550 5549 5547 5545 5544 5542 5541 5539 5537 5536 5534 5532 5530 5528 5526 5524 5522 5520 5518 5515 5513 5511 5508 5505 5502 5499 5496 5492 5488 5484 5480 5476 5472 5469 5466 5463 5461 5459 5457 5456 5454 5453 5453 5452 5451 5450 5450 5449 5447 5446 5445 5445 5445 5444 5444 5443 5443 5442 5441 5441 5440 5440 5440 5439 5440 5441 5441 5440 5441 5443 5443
5573 5571 5569 5567 5566 5564 5563 5561 5559 5558 5556 5554 5553 5551 5550 5548 5546 5545 5543 5541 5540 5538 5536 5534 5532 5530 5528 5526 5524 5522 5519 5517 5514 5512 5509 5506 5504 5500 5497 5494 5490 5486 5481 5477 5472 5468 5464 5460 5456 5453 5451 5449 5447 5446 5445 5444 5444 5443 5442 5442 5441 5440 5439 5439 5438 5438 5436 5436 5435 5434 5434 5433 5432 5431 5431 5430 5430 5430 5430 5431 5430 5431 5432 5434 5434
5571 5569 5567 5566 5564 5563 5561 5560 5558 5556 5555 5553 5551 5550 5548 5546 5545 5543 5541 5540 5538 5536 5534 5532 5530 5528 5526 5523 5521 5519 5516 5513 5510 5507 5504 5501 5498 5495 5491 5488 5484 5479 5474 5469 5464 5459 5455 5451 5447 5444 5441 5439 5438 5436 5435 5435 5434 5434 5433 5433 5433 5432 5432 5432 5431 5430 5429 5428 5427 5426 5425 5424 5423 5422 5421 5421 5420 5420 5420 5421 5421 5421 5423 5424 5425
5569 5567 5565 5563 5562 5560 5559 5557 5556 5554 5553 5551 5549 5548 5546 5544 5542 5541 5539 5537 5535 5533 5531 5529 5526 5524 5522 5519 5517 5514 5512 5509 5506 5503 5500 5496 5493 5489 5485 5481 5477 5473 5467 5462 5457 5452 5446 5441 5437 5434 5431 5429 5427 5426 5426 5425 5425 5425 5425 5425 5425 5425 5424 5424 5423 5422 5421 5420 5419 5418 5417 5416 5415 5413 5412 5412 5411 5411 5411 5411 5411 5412 5413 5415 5416
5566 5564 5563 5561 5559 5557 5556 5554 5553 5551 5550 5548 5547 5545 5543 5541 5540 5538 5536 5534 5532 5530 5528 5525 5523 5520 5517 5515 5512 5510 5507 5504 5501 5498 5495 5491 5488 5484 5480 5476 5471 5466 5461 5456 5450 5444 5439 5433 5428 5425 5422 5419 5417 5416 5416 5416 5416 5416 5416 5416 5417 5417 5416 5416 5415 5415 5414 5412 5412 5410 5409 5408 5406 5405 5404 5403 5402 5401 5401 5402 5402 5403 5405 5406 5408
5562 5561 5559 5558 5556 5555 5553 5551 5550 5548 5547 5545 5544 5542 5540 5538 5536 5535 5533 5531 5529 5526 5524 5522 5519 5516 5514 5511 5508 5505 5502 5499 5496 5493 5490 5486 5482 5478 5474 5470 5465 5461 5455 5450 5444 5437 5431 5425 5420 5416 5412 5410 5408 5407 5407 5408 5408 5408 5408 5408 5408 5409 5409 5408 5408 5407 5406 5405 5404 5403 5401 5400 5398 5397 5395 5394 5393 5392 5392 5392 5393 5395 5396 5398 5399
5558 5557 5555 5554 5553 5551 5550 5548 5546 5545 5543 5542 5540 5538 5537 5535 5533 5531 5529 5527 5525 5523 5521 5518 5516 5513 5510 5507 5504 5501 5498 5495 5491 5488 5485 5481 5477 5473 5469 5465 5460 5455 5449 5443 5437 5430 5424 5418 5412 5407 5404 5401 5399 5398 5398 5400 5400 5401 5401 5401 5401 5401 5401 5401 5401 5400 5399 5398 5397 5395 5394 5392 5390 5388 5386 5384 5383 5382 5382 5383 5385 5386 5388 5390 5391
5554 5553 5551 5550 5548 5547 5546 5544 5543 5541 5539 5538 5536 5534 5533 5531 5529 5527 5525 5523 5521 5519 5517 5515 5512 5509 5507 5504 5501 5498 5494 5491 5487 5483 5480 5476 5472 5468 5464 5459 5454 5449 5443 5436 5430 5423 5416 5410 5404 5399 5396 5393 5392 5391 5391 5392 5393 5394 5394 5394 5394 5394 5395 5395 5394 5394 5393 5391 5390 5388 5386 5384 5382 5380 5377 5375 5374 5373 5373 5374 5376 5378 5380 5382 5383
5550 5548 5547 5545 5544 5543 5541 5540 5538 5537 5535 5534 5532 5530 5529 5527 5525 5523 5521 5519 5517 5515 5513 5511 5508 5506 5503 5500 5497 5494 5490 5487 5483 5479 5475 5471 5466 5462 5457 5453 5448 5442 5436 5430 5423 5416 5409 5403 5398 5393 5389 5387 5385 5385 5385 5386 5387 5387 5388 5387 5387 5388 5388 5388 5388 5387 5386 5385 5383 5381 5379 5377 5374 5372 5370 5368 5366 5366 5366 5367 5369 5371 5373 5375 5376
5544 5543 5542 5540 5539 5538 5536 5535 5533 5532 5530 5529 5527 5526 5524 5522 5521 5519 5517 5515 5513 5511 5509 5507 5504 5502 5499 5496 5493 5490 5486 5483 5479 5475 5470 5466 5461 5456 5452 5447 5442 5436 5430 5424 5417 5410 5403 5397 5392 5388 5384 5382 5380 5380 5380 5380 5381 5381 5381 5381 5382 5382 5382 5382 5382 5381 5380 5379 5377 5375 5373 5370 5368 5366 5364 5363 5361 5360 5360 5361 5363 5365 5367 5369 5370
5539 5538 5536 5535 5534 5533 5531 5530 5528 5527 5526 5524 5522 5521 5519 5518 5516 5514 5512 5510 5508 5506 5504 5502 5500 5498 5495 5492 5489 5486 5482 5478 5474 5470 5466 5462 5457 5452 5447 5442 5436 5430 5424 5418 5411 5404 5398 5392 5387 5383 5380 5378 5376 5376 5375 5375 5375 5375 5376 5376 5376 5377 5377 5377 5376 5376 5375 5373 5372 5370 5368 5365 5363 5361 5360 5358 5357 5356 5357 5357 5359 5360 5362 5364 5365
5533 5532 5531 5530 5529 5527 5526 5525 5523 5522 5520 5519 5518 5516 5514 5513 5511 5509 5508 5506 5504 5502 5500 5498 5495 5493 5490 5488 5485 5481 5478 5474 5470 5466 5461 5457 5453 5448 5443 5438 5432 5426 5420 5413 5406 5399 5393 5387 5383 5379 5376 5374 5373 5372 5371 5371 5371 5371 5371 5371 5371 5372 5372 5372 5371 5371 5370 5368 5367 5365 5363 5361 5359 5357 5356 5355 5354 5354 5354 5354 5355 5356 5358 5359 5360
5527 5526 5525 5524 5523 5522 5521 5520 5518 5516 5515 5513 5512 5511 5509 5508 5506 5505 5503 5501 5499 5497 5495 5493 5491 5488 5485 5482 5479 5476 5472 5469 5465 5461 5457 5452 5448 5443 5439 5434 5428 5422 5416 5409 5402 5395 5388 5383 5379 5375 5373 5371 5369 5368 5367 5367 5366 5366 5366 5367 5367 5367 5367 5367 5366 5366 5365 5364 5362 5361 5359 5357 5355 5354 5353 5352 5351 5351 5351 5352 5352 5353 5354 5355 5356
5521 5520 5519 5518 5517 5516 5515 5514 5513 5512 5510 5508 5507 5505 5503 5502 5500 5499 5497 5496 5494 5492 5490 5487 5485 5483 5481 5477 5474 5471 5467 5464 5460 5456 5452 5448 5444 5439 5434 5429 5424 5418 5411 5404 5397 5390 5384 5379 5375 5372 5370 5368 5366 5365 5364 5363 5363 5362 5362 5362 5362 5362 5362 5362 5362 5361 5360 5359 5358 5357 5355 5354 5352 5351 5350 5349 5349 5349 5349 5349 5349 5350 5350 5351 5352
5515 5514 5513 5513 5512 5511 5510 5509 5508 5506 5505 5504 5502 5500 5499 5497 5495 5493 5492 5490 5489 5487 5485 5482 5480 5478 5476 5473 5470 5467 5463 5460 5456 5452 5448 5444 5440 5435 5430 5425 5420 5414 5407 5400 5393 5386 5381 5376 5372 5369 5367 5365 5363 5361 5360 5359 5359 5359 5358 5358 5358 5358 5357 5357 5357 5356 5355 5355 5354 5353 5352 5350 5349 5348 5347 5347 5346 5346 5346 5346 5346 5347 5347 5348 5348
5509 5508 5507 5507 5506 5505 5504 5503 5502 5501 5500 5499 5497 5496 5494 5492 5490 5488 5487 5485 5483 5482 5480 5478 5475 5473 5471 5468 5465 5462 5459 5455 5452 5448 5444 5440 5436 5431 5426 5421 5416 5410 5403 5396 5389 5383 5377 5373 5369 5366 5364 5362 5360 5358 5356 5356 5355 5354 5354 5354 5353 5353 5353 5353 5352 5352 5351 5350 5349 5349 5348 5347 5346 5345 5344 5344 5344 5343 5343 5343 5343 5344 5344 5344 5345
5503 5502 5502 5501 5501 5500 5499 5498 5497 5496 5495 5493 5492 5491 5489 5488 5486 5484 5482 5480 5478 5477 5475 5473 5471 5469 5466 5463 5461 5458 5454 5451 5448 5444 5440 5436 5432 5427 5422 5418 5413 5407 5400 5393 5386 5380 5374 5370 5367 5364 5361 5359 5357 5355 5353 5352 5352 5351 5350 5350 5350 5349 5349 5349 5348 5348 5347 5346 5346 5345 5344 5344 5343 5342 5341 5341 5341 5341 5341 5341 5341 5341 5341 5342 5342
5497 5497 5496 5496 5495 5495 5494 5493 5492 5491 5490 5488 5487 5486 5484 5483 5481 5480 5478 5476 5474 5472 5470 5469 5467 5464 5462 5460 5457 5454 5451 5447 5444 5440 5436 5432 5428 5423 5419 5414 5409 5403 5397 5390 5384 5377 5372 5368 5364 5361 5359 5357 5355 5353 5351 5350 5349 5348 5347 5347 5346 5346 5346 5345 5344 5344 5343 5343 5342 5341 5341 5340 5339 5339 5338 5338 5338 5338 5338 5338 5338 5338 5339 5339 5339
5492 5492 5491 5491 5490 5490 5489 5488 5487 5486 5484 5483 5482 5481 5479 5478 5476 5475 5473 5472 5470 5468 5466 5464 5462 5460 5458 5455 5453 5450 5447 5443 5440 5436 5432 5428 5424 5420 5415 5411 5405 5400 5394 5387 5381 5375 5370 5366 5362 5360 5357 5355 5353 5352 5350 5348 5346 5345 5345 5344 5344 5343 5343 5342 5341 5341 5340 5340 5339 5338 5338 5337 5336 5336 5335 5335 5335 5335 5335 5335 5335 5335 5336 5336 5336
5487 5487 5486 5486 5485 5484 5484 5483 5482 5481 5479 5478 5477 5476 5474 5473 5471 5470 5468 5467 5465 5464 5462 5460 5457 5455 5453 5450 5448 5445 5442 5439 5435 5432 5428 5425 5421 5417 5412 5408 5403 5397 5391 5385 5379 5373 5369 5365 5361 5358 5356 5354 5352 5350 5348 5347 5345 5344 5342 5342 5341 5341 5340 5339 5338 5338 5337 5337 5336 5336 5335 5334 5334 5333 5333 5332 5332 5332 5332 5332 5332 5332 5333 5333 5333
5482 5482 5481 5481 5480 5479 5478 5478 5477 5476 5474 5473 5472 5471 5469 5468 5466 5465 5463 5462 5460 5459 5457 5455 5453 5451 5448 5446 5443 5441 5438 5434 5431 5428 5424 5421 5417 5413 5409 5404 5400 5394 5389 5383 5377 5372 5367 5363 5360 5356 5354 5352 5350 5348 5347 5345 5344 5342 5341 5340 5339 5338 5337 5336 5335 5335 5334 5334 5333 5333 5332 5332 5331 5331 5330 5330 5329 5329 5329 5329 5329 5329 5329 5329 5329
5478 5477 5476 5475 5475 5474 5473 5472 5471 5470 5469 5468 5467 5465 5464 5463 5461 5460 5458 5457 5455 5454 5452 5450 5449 5447 5444 5442 5439 5436 5434 5431 5427 5424 5420 5417 5413 5409 5405 5401 5396 5391 5386 5381 5375 5370 5366 5362 5359 5355 5352 5350 5348 5346 5345 5343 5342 5341 5339 5338 5337 5335 5334 5333 5333 5332 5331 5331 5330 5330 5329 5329 5329 5328 5328 5327 5327 5327 5327 5326 5326 5326 5325 5325 5325
5474 5473 5472 5471 5470 5469 5468 5467 5466 5465 5464 5463 5461 5460 5459 5457 5456 5455 5453 5452 5450 5449 5447 5446 5444 5442 5440 5437 5435 5432 5430 5427 5424 5421 5417 5413 5409 5406 5402 5398 5393 5389 5384 5378 5373 5368 5364 5361 5357 5354 5351 5348 5346 5344 5342 5341 5339 5338 5337 5336 5335 5333 5332 5331 5330 5329 5328 5328 5327 5327 5326 5326 5326 5326 5325 5325 5325 5324 5324 5323 5323 5323 5322 5322 5322
5471 5469 5468 5467 5465 5464 5463 5462 5461 5460 5458 5457 5456 5454 5453 5452 5451 5449 5448 5447 5445 5444 5442 5441 5439 5437 5435 5433 5431 5428 5426 5423 5420 5417 5413 5410 5406 5402 5398 5395 5391 5386 5381 5376 5372 5367 5363 5359 5356 5353 5349 5346 5344 5342 5340 5338 5337 5335 5334 5333 5332 5331 5330 5328 5327 5326 5325 5325 5324 5324 5323 5323 5322 5322 5322 5322 5321 5321 5320 5320 5320 5319 5319 5318 5318
5467 5466 5464 5462 5461 5460 5458 5457 5456 5455 5453 5452 5451 5449 5448 5447 5445 5444 5443 5442 5440 5439 5437 5436 5434 5432 5430 5428 5426 5424 5421 5418 5416 5413 5410 5406 5402 5398 5395 5391 5388 5383 5379 5374 5370 5365 5361 5357 5354 5351 5348 5345 5342 5339 5337 5336 5334 5333 5331 5330 5329 5328 5327 5326 5324 5323 5322 5321 5321 5320 5320 5320 5319 5318 5318 5318 5317 5317 5317 5316 5316 5316 5315 5315 5314
5464 5462 5460 5458 5457 5455 5454 5452 5451 5450 5448 5447 5445 5444 5443 5441 5440 5439 5437 5436 5435 5434 5432 5431 5429 5427 5426 5423 5421 5419 5416 5414 5411 5409 5406 5402 5399 5395 5391 5388 5384 5381 5377 5372 5368 5363 5359 5355 5352 5349 5346 5343 5340 5337 5335 5333 5331 5330 5328 5327 5326 5325 5324 5323 5322 5321 5319 5318 5317 5317 5316 5316 5316 5315 5315 5314 5314 5313 5313 5312 5312 5311 5311 5310 5309
5461 5459 5457 5454 5452 5450 5449 5447 5446 5444 5443 5441 5440 5439 5437 5436 5434 5433 5432 5431 5430 5429 5427 5426 5424 5422 5421 5419 5417 5414 5412 5410 5407 5404 5401 5398 5395 5392 5388 5385 5381 5378 5374 5370 5366 5361 5357 5353 5350 5346 5344 5341 5338 5335 5332 5330 5328 5327 5325 5324 5323 5321 5320 5320 5319 5317 5316 5315 5314 5313 5313 5312 5312 5311 5311 5310 5310 5309 5309 5308 5308 5307 5306 5306 5305
5457 5455 5453 5451 5448 5446 5444 5442 5441 5439 5437 5436 5434 5433 5432 5430 5429 5427 5426 5425 5424 5423 5422 5421 5419 5417 5416 5414 5412 5410 5408 5405 5403 5400 5397 5394 5391 5388 5385 5381 5378 5374 5371 5367 5363 5359 5355 5351 5347 5344 5341 5338 5336 5333 5330 5328 5326 5324 5322 5321 5319 5318 5317 5316 5315 5314 5313 5312 5311 5310 5309 5309 5308 5308 5307 5306 5306 5305 5305 5304 5303 5303 5302 5301 5301
5453 5451 5449 5447 5444 5442 5440 5438 5436 5434 5432 5431 5429 5428 5426 5425 5423 5422 5421 5420 5418 5417 5416 5415 5414 5412 5410 5409 5407 5405 5403 5401 5399 5396 5393 5390 5387 5384 5381 5378 5375 5371 5368 5364 5360 5357 5353 5349 5345 5342 5339 5336 5333 5330 5328 5325 5323 5321 5319 5317 5316 5315 5313 5312 5311 5310 5310 5309 5307 5307 5306 5305 5304 5304 5303 5302 5302 5301 5300 5300 5299 5298 5297 5297 5296
5449 5447 5445 5442 5440 5438 5436 5434 5431 5429 5428 5426 5424 5423 5421 5420 5418 5417 5415 5414 5413 5412 5410 5409 5408 5407 5405 5404 5402 5400 5398 5396 5394 5392 5389 5386 5383 5380 5377 5374 5371 5368 5364 5361 5358 5354 5350 5347 5343 5339 5336 5333 5330 5328 5325 5323 5320 5318 5316 5314 5312 5311 5310 5308 5307 5306 5306 5305 5304 5303 5302 5301 5300 5300 5299 5298 5297 5297 5296 5295 5294 5293 5293 5292 5291
5444 5442 5440 5438 5436 5434 5432 5430 5427 5425 5423 5421 5419 5417 5416 5414 5413 5411 5410 5409 5407 5406 5405 5403 5402 5401 5400 5398 5397 5395 5393 5391 5389 5387 5385 5382 5379 5376 5374 5371 5367 5364 5361 5358 5354 5351 5348 5344 5340 5337 5333 5330 5327 5324 5322 5320 5317 5315 5313 5311 5309 5307 5306 5304 5303 5302 5301 5300 5299 5298 5298 5297 5296 5295 5294 5293 5293 5292 5291 5290 5290 5289 5288 5287 5286
5440 5438 5436 5433 5431 5429 5427 5425 5423 5421 5419 5416 5414 5412 5411 5409 5408 5406 5405 5403 5402 5401 5399 5398 5397 5396 5395 5393 5392 5390 5389 5387 5385 5382 5380 5378 5375 5372 5369 5367 5364 5361 5357 5354 5351 5348 5344 5341 5338 5334 5331 5327 5324 5321 5319 5316 5314 5312 5310 5307 5305 5304 5302 5300 5299 5298 5297 5296 5295 5294 5293 5292 5291 5290 5289 5288 5288 5287 5286 5285 5284 5283 5283 5282 5281
5435 5433 5431 5429 5427 5425 5422 5420 5418 5416 5414 5412 5410 5408 5406 5404 5403 5401 5399 5398 5397 5395 5394 5393 5391 5390 5389 5388 5387 5385 5384 5382 5380 5378 5376 5373 5371 5368 5365 5362 5360 5357 5354 5350 5347 5344 5341 5338 5334 5331 5328 5325 5321 5318 5315 5313 5310 5308 5306 5304 5302 5300 5298 5296 5295 5293 5292 5291 5290 5289 5288 5287 5286 5285 5284 5283 5282 5281 5280 5279 5279 5278 5277 5276 5275
5430 5428 5426 5424 5422 5420 5418 5416 5414 5412 5410 5408 5406 5404 5402 5400 5398 5396 5395 5393 5392 5390 5389 5388 5386 5385 5384 5383 5382 5380 5379 5377 5375 5373 5371 5369 5366 5364 5361 5358 5355 5352 5349 5346 5343 5341 5338 5334 5331 5328 5325 5321 5318 5315 5312 5309 5307 5304 5302 5300 5298 5296 5294 5292 5290 5289 5287 5286 5285 5284 5282 5281 5280 5279 5278 5277 5276 5275 5275 5274 5273 5272 5271 5271 5270